Location: Boiro
(42.6475°N, 8.8834°W)
Time: 11:57:27
(UTC+02:00)

deb Agena D - Pass Details

Date: 06 July 2022
Orbit: 997 x 1025 km, 100.1° (Epoch: 16 August)

Event Time Altitude Azimuth Distance (km) Brightness Sun altitude
Exits shadow 00:17:38 14° 103° (ESE) 2,502 ? -16.8°
Maximum altitude 00:21:28 25° 59° (ENE) 1,949 ? -17.2°
Drops below altitude 10° 00:26:25 10° 8° (N) 2,827 ? -17.7°
Sets 00:29:22 0° 355° (N) 3,781 ? -18.0°
